Regional Weather Roundup
Issued by NWS Little Rock, AR

Home | Current Version | Previous Version | Graphics & Text | Print | Product List | Glossary On
Versions: 1 2 3 4 5 6 7 8 9 10 11 12 13 14 15 16 17 18 19 20 21 22 23 24 25 26 27 28 29 30 31 32 33 34 35 36 37 38 39 40 41 42 43 44 45 46 47 48 49 50
000
ASUS44 KLZK 270405
RWRLZK

WEATHER ROUNDUP FOR ARKANSAS
NATIONAL WEATHER SERVICE LITTLE ROCK AR
1100 PM CDT TUE MAY 26 2015

NOTE: "FAIR" INDICATES FEW OR NO CLOUDS BELOW 12,000 FEET WITH NO
SIGNIFICANT WEATHER AND/OR OBSTRUCTIONS TO VISIBILITY.

ARZ001-003-010-029-270500-
NORTHWEST ARKANSAS

CITY           SKY/WX    TMP DP  RH WIND       PRES   REMARKS
FAYETTEVILLE   CLOUDY    64  63  96 CALM      30.00F
FORT SMITH     CLOUDY    73  67  81 CALM      29.97F
HARRISON       MOCLDY    68  62  81 SE8       30.04R
BENTONVILLE    CLOUDY   N/A N/A N/A SE6       30.00F
ROGERS         MOCLDY    67  62  84 SE7       30.01F
SILOAM SPGS    MOCLDY    66  59  77 SE5       30.01F
HIGHFILL       MOCLDY    67  63  87 E5        29.99F
$$

ARZ004-005-016-270500-
NORTH CENTRAL ARKANSAS

CITY           SKY/WX    TMP DP  RH WIND       PRES   REMARKS
BATESVILLE     PTCLDY    72  64  78 SE3       30.05S
FLIPPIN        MOCLDY    72  63  73 CALM      30.02R
MTN HOME       PTCLDY    67  63  87 S3        30.02S
$$

ARZ040-041-270500-
WEST CENTRAL ARKANSAS

CITY           SKY/WX    TMP DP  RH WIND       PRES   REMARKS
MENA           CLOUDY    72  70  94 CALM      30.02F
MOUNT IDA      CLOUDY    72  68  87 VRB5      30.01F
$$

ARZ009-017-025-026-028-270500-
NORTHEAST ARKANSAS

CITY           SKY/WX    TMP DP  RH WIND       PRES   REMARKS
CORNING        FAIR      68  66  94 S8        30.05F
JONESBORO      CLEAR     63  63 100 CALM      30.06S
NEWPORT        CLEAR     70  67  90 S9        30.06F
WALNUT RIDGE   CLEAR     70  63  78 S9        30.05F
BLYTHEVILLE    CLEAR     70  66  87 S6        30.08S
$$

ARZ022-023-033-042-044-270500-
CENTRAL ARKANSAS

CITY           SKY/WX    TMP DP  RH WIND       PRES   REMARKS
LITTLE ROCK    MOCLDY    71  65  81 S5        30.05F
N LITTLE ROCK  MOCLDY    70  68  94 S5        30.05F
JACKSONVILLE   MOCLDY    71  67  88 SE3       30.04F
SEARCY         MOCLDY    69  66  90 SE5       30.07F
HOT SPRINGS    CLOUDY    70  67  90 E7        30.03F
RUSSELLVILLE   MOCLDY    71  68  90 CALM      30.02S
CLINTON        FAIR      64  64 100 CALM      30.06F
$$

ARZ036-270500-
EAST ARKANSAS

CITY           SKY/WX    TMP DP  RH WIND       PRES   REMARKS
WEST MEMPHIS   CLEAR     70  68  93 S5        30.07S
$$

ARZ050-053-066-070-073-270500-
SOUTHWEST ARKANSAS

CITY           SKY/WX    TMP DP  RH WIND       PRES   REMARKS
ARKADELPHIA    FAIR      72  72 100 CALM      30.04F
CAMDEN         CLOUDY    70  66  88 CALM      30.05S FOG
TEXARKANA      CLOUDY    73  70  90 SE8       30.01F
EL DORADO      CLOUDY    72  68  87 E10       30.08R
DE QUEEN       CLOUDY    73  69  87 SE8       29.98F
$$

ARZ056-057-069-270500-
SOUTHEAST ARKANSAS

CITY           SKY/WX    TMP DP  RH WIND       PRES   REMARKS
PINE BLUFF     PTCLDY    71  68  90 SE3       30.06F
STUTTGART      MOCLDY    72  64  78 S6        30.06F
MONTICELLO     CLOUDY    75  71  87 S5        30.07F

$$




USA.gov is the U.S. government's official web portal to all federal, state and local government web resources and services.